[[{"header":{"parameterUnit":"m.s-1","parameterCategory":1,"la1":30.2991,"la2":30.254,"lo1":-89.0895,"lo2":-89.0444,"dy":0.0017,"dx":0.0017,"nx":28,"ny":28,"refTime":"2025-01-15T09:00:00:Z","depth":0,"parameterNumber":2,"parameterNumberName":"U-component_of_WINDS"},"data":[0,0,0,0,0,0,0,0,0,0,0,0,0,0,0,0,0,0,0,0,0,0,0,0,0,0,0,0,0,0,0,0,0,0,0,0,0,0,0,0,0,0,0,0,0,0,0,0,0,0,0,0,0,0,0,0,0,0,-1.6263,-1.6264,0,-1.6369,-1.6371,-1.6372,-1.6344,-1.6341,-1.6339,-1.6337,-1.645,-1.6455,-1.646,0,0,0,0,0,0,0,0,0,0,0,0,0,-1.6041,-1.6045,-1.6263,-1.6265,-1.6266,-1.6369,-1.6371,-1.6372,-1.6344,-1.6341,-1.6339,-1.6336,-1.6448,-1.6454,-1.646,0,0,0,0,0,0,0,0,0,0,0,0,0,-1.6141,-1.6046,-1.6263,-1.6264,-1.6265,-1.6369,-1.6371,-1.6373,-1.6345,-1.6341,-1.6338,-1.6335,-1.6446,-1.6454,-1.6461,-1.6571,0,0,-1.6484,-1.6487,0,0,0,0,0,0,0,0,-1.6136,-1.6149,-1.6263,-1.6264,-1.6266,-1.634,-1.6334,-1.6439,-1.6345,-1.6315,-1.6337,-1.6334,-1.6416,-1.6426,-1.6453,-1.6576,-1.6581,-1.6485,-1.6489,-1.6492,-1.6494,0,0,0,0,0,0,0,-1.6129,-1.6145,-1.6305,-1.6264,-1.6266,-1.6261,-1.6272,-1.6353,-1.6382,-1.6317,-1.6315,-1.6328,-1.6416,-1.6446,-1.6455,-1.6583,-1.6484,-1.6491,-1.6496,-1.6499,-1.6805,-1.6809,0,0,0,0,0,0,-1.612,-1.6139,-1.6302,-1.6309,-1.6191,-1.6268,-1.628,-1.6319,-1.6381,-1.6387,-1.6331,-1.6326,-1.6435,-1.6447,-1.6459,-1.6595,-1.6492,-1.6499,-1.6504,-1.6802,-1.6806,-1.681,0,0,0,0,0,0,-1.6115,-1.6135,-1.6298,-1.6223,-1.6244,-1.6275,-1.632,-1.6323,-1.6353,-1.6391,-1.6397,-1.6355,-1.6433,-1.6449,-1.6544,-1.6598,-1.6503,-1.6509,-1.6797,-1.6803,-1.6808,-1.6865,0,0,0,0,0,0,-1.6109,-1.6133,-1.6174,-1.6224,-1.6248,-1.6379,-1.6323,-1.6328,-1.6365,-1.636,-1.6416,-1.6422,-1.6431,-1.6533,-1.6551,-1.6607,-1.6515,-1.6793,-1.68,-1.6806,-1.6859,-1.6872,-1.6883,0,0,0,0,0,-1.6101,-1.6186,-1.6176,-1.6196,-1.6299,-1.6382,-1.6396,-1.6404,-1.6369,-1.6412,-1.6437,-1.642,-1.6589,-1.6543,-1.6564,-1.6622,-1.6789,-1.6798,-1.6806,-1.6853,-1.6869,-1.6883,0,0,0,0,0,0,-1.6142,-1.6193,-1.6182,-1.6286,-1.633,-1.6377,-1.6431,-1.642,-1.6476,-1.647,-1.6478,-1.6491,-1.6589,-1.6615,-1.6563,-1.6733,-1.6684,-1.6697,-1.6713,-1.6729,-1.6741,-1.6734,-1.6521,0,0,0,0,0,-1.6163,-1.6225,-1.6266,-1.6354,-1.6376,-1.64,-1.6437,-1.6439,-1.6485,-1.6504,-1.6536,-1.6583,-1.6647,-1.6689,-1.675,-1.6862,-1.6875,-1.6912,-1.6924,-1.6934,-1.6946,-1.701,-1.7028,-1.6837,-1.6837,-1.6837,0,0,-1.6208,-1.6243,-1.6282,-1.6363,-1.6398,-1.6464,-1.6416,-1.6487,-1.6537,-1.6515,-1.6608,-1.6633,-1.6686,-1.6791,-1.6839,-1.6815,-1.7002,-1.6945,-1.6952,-1.6959,-1.7021,-1.7039,-1.7055,-1.6843,-1.6842,-1.6841,0,0,-1.6323,-1.6354,-1.6432,-1.6468,-1.652,-1.6536,-1.6554,-1.6604,-1.662,-1.6712,-1.6698,-1.6758,-1.6867,-1.6906,-1.694,-1.7072,-1.7059,-1.7091,-1.7157,-1.7219,-1.7234,-1.7248,-1.7298,-1.7315,-1.7102,-1.7102,-1.7102,0,-1.6372,-1.6469,-1.6474,-1.6547,-1.6584,-1.6567,-1.6647,-1.6682,-1.6752,-1.6779,-1.6751,-1.6889,-1.6923,-1.7039,-1.7071,-1.7098,-1.7122,-1.7086,-1.7231,-1.7245,-1.7258,-1.7305,-1.7324,-1.7106,-1.7106,-1.7105,-1.7105,0,-1.6529,-1.6596,-1.6653,-1.6721,-1.6764,-1.684,-1.6859,-1.6902,-1.6901,-1.692,-1.7016,-1.7056,-1.7126,-1.7153,-1.7153,-1.7269,-1.7254,-1.7228,-1.718,-1.7279,-1.7325,-1.7343,-1.7111,-1.711,-1.7109,-1.7108,0,0,-1.6674,-1.6743,-1.6764,-1.6796,-1.6853,-1.6906,-1.6983,-1.705,-1.7089,-1.7138,-1.7204,-1.7297,-1.7275,-1.7314,-1.7317,-1.7372,-1.7477,-1.734,-1.7342,-1.7367,-1.7612,-1.7633,-1.7654,-1.7468,-1.7472,-1.7474,-1.7609,0,-1.6796,-1.6929,-1.6936,-1.7058,-1.7123,-1.7107,-1.7174,-1.7218,-1.7238,-1.7296,-1.7319,-1.7386,-1.7349,-1.7373,-1.7426,-1.7453,-1.7527,-1.7443,-1.7533,-1.7536,-1.7523,-1.7677,-1.7698,-1.7823,-1.7626,-1.7629,-1.7631,0,-1.6957,-1.7011,-1.7139,-1.7189,-1.7216,-1.7276,-1.7339,-1.7395,-1.7445,-1.7455,-1.7499,-1.7496,-1.7577,-1.7523,-1.7636,-1.7579,-1.7616,-1.7635,-1.764,-1.7651,-1.7591,-1.7695,-1.7863,-1.7883,-1.7658,-1.7656,-1.7654,0,-1.7053,-1.7158,-1.7249,-1.7276,-1.7335,-1.7378,-1.7406,-1.7452,-1.7493,-1.7548,-1.7576,-1.764,-1.7676,-1.7727,-1.7743,-1.7702,-1.7856,-1.7803,-1.787,-1.787,-1.7906,-1.7904,-1.8085,-1.7925,-1.7924,-1.7924,-1.7923,0,-1.7191,-1.7271,-1.7293,-1.735,-1.744,-1.7447,-1.7536,-1.7561,-1.7603,-1.7665,-1.7655,-1.7714,-1.7729,-1.7792,-1.7804,-1.7898,-1.7913,-1.7926,-1.7929,-1.7929,-1.7928,-1.7955,-1.7948,-1.7929,-1.7928,-1.7927,-1.7926,0,-1.7315,-1.7333,-1.7432,-1.748,-1.7494,-1.7559,-1.7601,-1.7656,-1.7674,-1.7754,-1.7773,-1.7803,-1.7876,-1.7895,-1.7983,-1.7991,-1.8103,-1.8096,-1.8086,-1.8087,-1.8154,-1.8148,-1.8361,-1.8391,-1.8208,-1.821,-1.8211,0,-1.7403,-1.7464,-1.7519,-1.756,-1.7589,-1.7654,-1.7696,-1.7706,-1.775,-1.7812,-1.7861,-1.7933,-1.7991,-1.8109,-1.814,-1.8208,-1.8205,-1.8275,-1.8215,-1.8214,-1.821,-1.8207,-1.8215,-1.8287,-1.8289,-1.829,-1.8292,0,-1.7558,-1.7565,-1.7624,-1.7688,-1.7738,-1.7788,-1.7837,-1.7871,-1.7889,-1.7939,-1.8014,-1.8059,-1.8148,-1.8221,-1.829,-1.832,-1.8311,-1.831,-1.833,-1.8331,-1.8324,-1.8332,-1.812,-1.8306,-1.8304,-1.8303,-1.8302,-1.8302,-1.7669,-1.7724,-1.7772,-1.7839,-1.7877,-1.7923,-1.7978,-1.8003,-1.8065,-1.8139,-1.8141,-1.8223,-1.8273,-1.8364,-1.8398,-1.8464,-1.8443,-1.8471,-1.8478,-1.8486,-1.8493,-1.8311,-1.8476,-1.8476,-1.8475,-1.8475,-1.8475,0,-1.7827,-1.7857,-1.7919,-1.7987,-1.8041,-1.8025,-1.8078,-1.8125,-1.8197,-1.8244,-1.8302,-1.8389,-1.846,-1.8496,-1.8567,-1.8613,-1.861,-1.8631,-1.863,-1.8637,-1.8506,-1.8483,-1.8632,-1.8632,-1.8632,-1.8632,-1.8632,-1.8632,-1.7915,-1.8008,-1.802,-1.8132,-1.8162,-1.8241,-1.8274,-1.8317,-1.8355,-1.8452,-1.8511,-1.8533,-1.8577,-1.8651,-1.8717,-1.8726,-1.8754,-1.8778,-1.8785,-1.8662,-1.8646,-1.8631,-1.861,-1.8783,-1.8783,-1.8911,-1.8913,-1.8913]},{"header":{"parameterUnit":"m.s-1","parameterCategory":1,"la1":30.2991,"la2":30.254,"lo1":-89.0895,"lo2":-89.0444,"dy":0.0017,"dx":0.0017,"nx":28,"ny":28,"refTime":"2025-01-15T09:00:00:Z","depth":0,"parameterNumber":3,"parameterNumberName":"V-component_of_WINDS"},"data":[0,0,0,0,0,0,0,0,0,0,0,0,0,0,0,0,0,0,0,0,0,0,0,0,0,0,0,0,0,0,0,0,0,0,0,0,0,0,0,0,0,0,0,0,0,0,0,0,0,0,0,0,0,0,0,0,0,0,-3.4045,-3.4044,0,-3.4031,-3.4031,-3.4031,-3.3957,-3.3955,-3.3954,-3.3952,-3.394,-3.3941,-3.3942,0,0,0,0,0,0,0,0,0,0,0,0,0,-3.4007,-3.4008,-3.4045,-3.4044,-3.4044,-3.4031,-3.4031,-3.4031,-3.3957,-3.3955,-3.3953,-3.3951,-3.3939,-3.3941,-3.3943,0,0,0,0,0,0,0,0,0,0,0,0,0,-3.4012,-3.4009,-3.4045,-3.4006,-3.4002,-3.4031,-3.4031,-3.4031,-3.3958,-3.3955,-3.3952,-3.395,-3.3939,-3.3941,-3.3943,-3.4008,0,0,-3.3949,-3.395,0,0,0,0,0,0,0,0,-3.4012,-3.4013,-3.4012,-3.4009,-3.4005,-3.3993,-3.4013,-3.4023,-3.3958,-3.3975,-3.3952,-3.3949,-3.396,-3.396,-3.3963,-3.4008,-3.4007,-3.3949,-3.395,-3.3951,-3.3952,0,0,0,0,0,0,0,-3.4011,-3.4013,-3.4039,-3.4012,-3.4008,-3.399,-3.3987,-3.4015,-3.3982,-3.3973,-3.3968,-3.3967,-3.3957,-3.3962,-3.3963,-3.4007,-3.3949,-3.3951,-3.3952,-3.3953,-3.4104,-3.4107,0,0,0,0,0,0,-3.4016,-3.4014,-3.404,-3.4039,-3.4002,-3.3992,-3.399,-3.3999,-3.3982,-3.3977,-3.3969,-3.3964,-3.3959,-3.396,-3.3962,-3.4037,-3.3951,-3.3953,-3.3954,-3.4101,-3.4105,-3.4108,0,0,0,0,0,0,-3.4016,-3.4019,-3.404,-3.4025,-3.4026,-3.3996,-3.4007,-3.4001,-3.4005,-3.3979,-3.3973,-3.398,-3.3957,-3.3959,-3.3997,-3.4035,-3.3954,-3.3956,-3.4098,-3.4102,-3.4106,-3.4188,0,0,0,0,0,0,-3.4015,-3.402,-3.4044,-3.4026,-3.4027,-3.4076,-3.401,-3.4002,-3.4008,-3.4001,-3.3987,-3.3982,-3.3955,-3.3995,-3.3999,-3.4037,-3.3957,-3.4094,-3.41,-3.4105,-3.4182,-3.4195,-3.4206,0,0,0,0,0,-3.4014,-3.4068,-3.4046,-3.4049,-3.4057,-3.4078,-3.4079,-3.4046,-3.4012,-3.4036,-3.4019,-3.3983,-3.4031,-3.3999,-3.4004,-3.4042,-3.4092,-3.4098,-3.4105,-3.4177,-3.4192,-3.4205,0,0,0,0,0,0,-3.4093,-3.4065,-3.404,-3.409,-3.4087,-3.4066,-3.4095,-3.4064,-3.4071,-3.4064,-3.4024,-3.4022,-3.4066,-3.4058,-3.4023,-3.4105,-3.4055,-3.4063,-3.4108,-3.4123,-3.4134,-3.4135,-3.3959,0,0,0,0,0,-3.4116,-3.4135,-3.411,-3.4156,-3.4156,-3.4126,-3.4134,-3.4109,-3.4105,-3.4103,-3.4089,-3.4087,-3.4101,-3.4111,-3.4123,-3.418,-3.4176,-3.4209,-3.4221,-3.4231,-3.4238,-3.4267,-3.4281,-3.4129,-3.4129,-3.4129,0,0,-3.4164,-3.4151,-3.4166,-3.4172,-3.4166,-3.4187,-3.4126,-3.415,-3.4165,-3.4107,-3.4142,-3.4132,-3.4126,-3.4174,-3.4194,-3.4169,-3.4279,-3.4239,-3.4247,-3.4249,-3.4275,-3.4289,-3.4302,-3.4133,-3.4132,-3.4132,0,0,-3.4262,-3.4254,-3.4292,-3.4287,-3.428,-3.4259,-3.4268,-3.4252,-3.4243,-3.4277,-3.4233,-3.4251,-3.4277,-3.4274,-3.4276,-3.4373,-3.4339,-3.4378,-3.444,-3.4468,-3.448,-3.4491,-3.4525,-3.4537,-3.4385,-3.4385,-3.4385,0,-3.4323,-3.4352,-3.4315,-3.4342,-3.4346,-3.4293,-3.4331,-3.4329,-3.4326,-3.433,-3.4301,-3.4332,-3.4324,-3.4371,-3.4394,-3.4398,-3.4407,-3.4379,-3.4481,-3.4492,-3.4501,-3.4533,-3.4546,-3.439,-3.4389,-3.4389,-3.4388,0,-3.4426,-3.4447,-3.4478,-3.4476,-3.4483,-3.4516,-3.4484,-3.4496,-3.4471,-3.4453,-3.4489,-3.4478,-3.4486,-3.4495,-3.4471,-3.4538,-3.4522,-3.4488,-3.4438,-3.4521,-3.455,-3.4562,-3.4396,-3.4395,-3.4393,-3.4392,0,0,-3.4575,-3.455,-3.4562,-3.456,-3.4547,-3.4563,-3.4593,-3.46,-3.4611,-3.4611,-3.4635,-3.4657,-3.4625,-3.4628,-3.4603,-3.4628,-3.4705,-3.4591,-3.459,-3.4612,-3.4777,-3.4803,-3.4818,-3.4682,-3.4685,-3.4686,-3.4778,0,-3.4668,-3.4717,-3.4684,-3.4739,-3.4757,-3.4707,-3.4733,-3.4728,-3.4713,-3.4727,-3.471,-3.4726,-3.4683,-3.4684,-3.4707,-3.4691,-3.4737,-3.4684,-3.4705,-3.4706,-3.4707,-3.4833,-3.486,-3.4947,-3.4789,-3.4791,-3.4792,0,-3.4784,-3.4787,-3.4843,-3.4826,-3.4832,-3.4856,-3.486,-3.4874,-3.4867,-3.4854,-3.4857,-3.4825,-3.4853,-3.4803,-3.4842,-3.4806,-3.4813,-3.4806,-3.4808,-3.4809,-3.4754,-3.4837,-3.4974,-3.4987,-3.481,-3.4809,-3.4807,0,-3.4885,-3.4904,-3.494,-3.4939,-3.492,-3.4938,-3.4931,-3.4922,-3.4928,-3.4932,-3.4935,-3.4943,-3.4947,-3.4953,-3.4924,-3.4891,-3.4966,-3.4914,-3.4957,-3.4957,-3.4975,-3.4974,-3.5115,-3.498,-3.498,-3.4979,-3.4979,0,-3.4993,-3.5029,-3.4985,-3.5007,-3.5046,-3.5008,-3.5048,-3.5036,-3.5028,-3.5047,-3.5004,-3.5023,-3.4984,-3.4999,-3.4976,-3.5011,-3.5014,-3.5004,-3.4998,-3.5008,-3.5009,-3.5011,-3.5005,-3.4983,-3.4982,-3.4981,-3.4981,0,-3.5113,-3.5085,-3.5121,-3.5099,-3.5094,-3.5124,-3.5106,-3.5125,-3.5107,-3.5131,-3.5135,-3.5106,-3.5121,-3.5093,-3.5105,-3.509,-3.5139,-3.5123,-3.5141,-3.5136,-3.518,-3.5176,-3.5327,-3.5344,-3.5199,-3.52,-3.5201,0,-3.5184,-3.521,-3.5191,-3.52,-3.5195,-3.5211,-3.5216,-3.518,-3.5188,-3.5182,-3.5202,-3.5214,-3.5221,-3.5248,-3.5228,-3.5237,-3.5221,-3.5273,-3.5222,-3.5231,-3.5221,-3.522,-3.5222,-3.5284,-3.5286,-3.5287,-3.5288,0,-3.5312,-3.5296,-3.5306,-3.531,-3.5318,-3.532,-3.5319,-3.5329,-3.5291,-3.5302,-3.5316,-3.5322,-3.5333,-3.5345,-3.5349,-3.5342,-3.5309,-3.5305,-3.5315,-3.5325,-3.5334,-3.5329,-3.5169,-3.5301,-3.53,-3.5299,-3.5298,-3.5298,-3.5409,-3.543,-3.5419,-3.5431,-3.5426,-3.5426,-3.5443,-3.5426,-3.5437,-3.5443,-3.5421,-3.544,-3.5432,-3.5434,-3.5431,-3.5446,-3.5423,-3.5438,-3.5441,-3.5445,-3.5452,-3.5332,-3.5446,-3.5446,-3.5446,-3.5445,-3.5445,0,-3.5534,-3.5525,-3.5536,-3.5535,-3.5544,-3.5511,-3.5508,-3.5518,-3.5535,-3.5531,-3.5538,-3.5555,-3.5566,-3.5547,-3.5555,-3.557,-3.5556,-3.5574,-3.5572,-3.5571,-3.5473,-3.5463,-3.5586,-3.5586,-3.5586,-3.5586,-3.5586,-3.5586,-3.5601,-3.5634,-3.5617,-3.5647,-3.5637,-3.5655,-3.5656,-3.5655,-3.5651,-3.5671,-3.5679,-3.5667,-3.5656,-3.5663,-3.5672,-3.5666,-3.5671,-3.5694,-3.5684,-3.5592,-3.5578,-3.5565,-3.5555,-3.5696,-3.5696,-3.578,-3.5781,-3.5782]}]]